Regional Weather Roundup
Issued by NWS

Home | Current Version | Previous Version | Text Only | Print | Product List | Glossary On
Versions: 1 2 3 4 5 6 7 8 9 10 11 12 13 14 15 16 17 18 19 20 21 22 23 24 25 26 27 28 29 30 31 32 33 34 35 36 37 38 39 40 41 42 43 44 45 46 47 48 49 50
151
ASUS43 KBIS 170210
RWRND

NORTH DAKOTA REGIONAL WEATHER ROUNDUP
NATIONAL WEATHER SERVICE BISMARCK ND
900 PM CDT MON OCT 16 2017

NOTE: "FAIR" INDICATES FEW OR NO CLOUDS BELOW 12,000 FEET WITH NO
SIGNIFICANT WEATHER AND/OR OBSTRUCTIONS TO VISIBILITY.


NDZ001>003-009>011-017-170300-
NORTHWEST NORTH DAKOTA

CITY           SKY/WX    TMP DP  RH WIND       PRES   REMARKS
WILLISTON      CLEAR     45  32  60 CALM      29.93F
MINOT          CLEAR     52  35  52 SW10      29.90F
MINOT AFB      CLEAR     47  33  58 W9        29.89S
$$

NDZ018>021-031>035-040>046-170300-
SOUTHWEST NORTH DAKOTA

CITY           SKY/WX    TMP DP  RH WIND       PRES   REMARKS
BISMARCK       CLOUDY    53  33  46 CALM      29.97R
DICKINSON      CLOUDY    46  29  51 W6        29.99R
GARRISON         N/A     51  34  52 W8        29.94S
HETTINGER ARPT CLEAR     41  27  57 NW5       30.04R
$$

NDZ004>008-012>016-024-026-027-054-170300-
NORTHEAST NORTH DAKOTA

CITY           SKY/WX    TMP DP  RH WIND       PRES   REMARKS
GRAND FORKS    CLOUDY    54  37  52 W6        29.86R
GRND FRKS AFB  CLOUDY    55  35  47 W8        29.87S
DEVILS LAKE    CLOUDY    50  36  58 SW5       29.90S
$$

NDZ022-023-025-028>030-036>039-047>053-170300-
SOUTHEAST NORTH DAKOTA

CITY           SKY/WX    TMP DP  RH WIND       PRES   REMARKS
FARGO          CLOUDY    50  39  66 SW3       29.89R
JAMESTOWN      CLOUDY    52  34  50 W6        29.92R
$$





USA.gov is the U.S. government's official web portal to all federal, state and local government web resources and services.